Weather in Muan

South Korea     34°54′00″N   126°25′47″E
temp.,
°C
wind,
m/s
gust,
m/s
humid.,
%
clouds,
%
prec.,
mm/h
press.,
hPa
HPBL,
m
18 april, sun
sun1800:00+8wnw713571 0.0 1018716
03:00+8nw814625 0.0 1017733
06:00+8nw713700 0.0 1018871
09:00+10nw812550 0.0 10191145
12:00+12nw913480 0.0 10191155
15:00+12nw711500 0.0 1018929
18:00+10nw59580 0.0 1018612
21:00+7nw22790 0.0 102021
19 april, mon
mon1900:00+7nnw22780 0.0 101911
03:00+6ne11760 0.0 101910
06:00+5ese11780 0.0 102015
09:00+12wsw23530 0.0 1020370
12:00+15w46410 0.0 1020669
15:00+15w56430 0.0 1019582
18:00+13wnw34540 0.0 1019280
21:00+10wnw11720 0.0 102010
20 april, tue
tue2000:00+9nw11750 0.0 102110
03:00+8n117693 0.0 102110
06:00+7ene117663 0.0 102111
09:00+14n124973 0.0 1022296
12:00+18nw443775 0.0 1022680
15:00+19nw45395 0.0 1020589
18:00+16nw3549100 0.0 1020157
21:00+12n115587 0.0 102210
21 april, wed
wed2100:00+12ne115721 0.0 102310
03:00+11e226413 0.0 102210
06:00+10e2259100 0.0 102311
09:00+17e354586 0.0 1023326
12:00+22sse462999 0.0 10221145
15:00+23sse463077 0.0 10201239
18:00+20sse3540100 0.0 1020195
21:00+15se0154100 0.0 102111
22 april, thu
thu2200:00+15e1157100 0.0 102112
03:00+13ese1160100 0.0 101911
06:00+14e2258100 0.0 101917
09:00+17ese2450100 0.0 1019254
12:00+21s4641100 0.0 10181112
15:00+21s2441100 0.0 1016993
18:00+18ene1251100 0.0 101638
21:00+16nne2257100 0.0 101724